STARLINK-4204, 52854

Orbit data source: Space-Track

STARLINK-4204, 52854 is a payload satellite owned by SpaceX/Seattle (US) in LEO that was launched on Fri, 17 Jun 2022 UTC via an FALCON 9 launch vehicle from the Air Force Eastern Test Range (AFETR). Payload-class satellites include a variety of spacecraft equipped with specific instruments for various scientific and technological missions. These include communications satellites like Starlink; space stations such as the ISS; scientific satellites like the Hubble; Earth observation satellites from companies like Planet Labs, Umbra, and HawkEye 360; GPS; miniature CubeSats for education and research; and military/defense satellites.

Loading next visibility...
Identifier
52854, 2022-062AA
Orbit
LEO
Country
Flag of USUS
Related business
Manufacturer
SpaceX/Seattle
Mission
Operational Commercial Communications
Bus & Motor
STARLINK, Unknown motor
Mass
297 kg wet, ~275 kg dry
Launch date (UTC)
2022-06-17 (3 years ago)
Launch vehicle
FALCON 9
Launch site
Air Force Eastern Test Range (AFETR)
Object type
Payload
Rocket body
Debris
Shape & HBR
Box + 1 Pan, 10.1 m
Radar Cross Section
13.562 m², Large (>1 m²)

Expand to show TLE details & history
Last TLE update: 1 day ago

TLE from 1 day ago
0 STARLINK-4204
1 52854U 22062AA  25348.44855124 -.00000662  00000-0 -23549-4 0  9994
2 52854  53.2183  46.7847 0001463  92.0660 268.0500 15.08822457193052
Epoch: 2025-12-14T10:45Z
TLE epoch observation values (Epoch: 2025-12-14T10:45:54.827Z)
Latitude
0.00002°
Longitude
161.94495°
Altitude
540.729 km
Speed
7.593 km/s
True Right ascension
03h 07m 08s
True Declination
0° 00' 00"
Sunlit
Object was in full shadow at epoch
Visualization orbit readout
Latitude
Unknown
Longitude
Unknown
Altitude
Unknown
Speed
Unknown
Apparent Right ascension
Unknown
Apparent Declination
Unknown
Sunlit
N/A
Visualization observer readout
Local Sidereal Time
13:24:38
Azimuth
Unknown
Elevation
Unknown
Doppler factor
Unknown
Orbital elements
Apogee altitude
541.054 km
Perigee altitude
539.03 km
Semi-major axis
6,918.179 km
Eccentricity
0.00015
Inclination
53.2183°
RAAN
46.7847°
Arg. of periapsis
92.066°
True anomaly
268.03325°
Mean anomaly
268.05°
Eccentric anomaly
268.04162°
Mean motion
3.77186 °/min
Orbital period
95.44 mins
BSTAR
-0.000023549
Loading maneuver chart data...
Computing Atmospheric mass density...
Loading historical data...
Loading historical data...
Loading historical data...
Loading historical data...
Loading historical data...
Loading historical data...
Loading historical data...

Documentation

Showing up to 5 results
|